Year,Month,Day,Hour,Minute,Value (Times are PST for temperature in C)
2007,05,30,00,00,13.60
2007,05,30,00,01,13.50
2007,05,30,00,02,13.50
2007,05,30,00,03,13.50
2007,05,30,00,04,13.40
2007,05,30,00,05,13.40
2007,05,30,00,06,13.40
2007,05,30,00,07,13.40
2007,05,30,00,08,13.40
2007,05,30,00,09,13.40
2007,05,30,00,10,13.40
2007,05,30,00,11,13.30
2007,05,30,00,12,13.30
2007,05,30,00,13,13.30
2007,05,30,01,02,12.40
2007,05,30,01,03,12.40
2007,05,30,01,04,12.40
2007,05,30,01,05,12.40
2007,05,30,01,06,12.40
2007,05,30,01,07,12.40
2007,05,30,01,08,12.40
2007,05,30,01,09,12.30
2007,05,30,01,10,12.30
2007,05,30,01,11,12.30
2007,05,30,01,12,12.30
2007,05,30,01,13,12.30
2007,05,30,01,14,12.30
2007,05,30,01,15,12.30
2007,05,30,01,16,12.30
2007,05,30,01,17,12.30
2007,05,30,01,18,12.30
2007,05,30,01,19,12.30
2007,05,30,01,20,12.30
2007,05,30,01,21,12.30
2007,05,30,01,22,12.30
2007,05,30,01,23,12.30
2007,05,30,01,24,12.30
2007,05,30,01,25,12.30
2007,05,30,01,26,12.30
2007,05,30,01,27,12.30
2007,05,30,01,28,12.30
2007,05,30,01,29,12.30
2007,05,30,01,30,12.30
2007,05,30,01,31,12.30
2007,05,30,01,32,12.30
2007,05,30,01,33,12.30
2007,05,30,01,34,12.30
2007,05,30,01,35,12.30
2007,05,30,01,36,12.30
2007,05,30,01,37,12.30
2007,05,30,01,38,12.30
2007,05,30,01,39,12.30
2007,05,30,01,40,12.30
2007,05,30,01,41,12.30
2007,05,30,01,42,12.30
2007,05,30,01,43,12.30
2007,05,30,01,44,12.30
2007,05,30,01,45,12.30
2007,05,30,01,46,12.30
2007,05,30,01,47,12.30
2007,05,30,01,48,12.30
2007,05,30,01,49,12.30
2007,05,30,01,50,12.30
2007,05,30,01,51,12.30
2007,05,30,01,52,12.30
2007,05,30,01,53,12.30
2007,05,30,01,54,12.30
2007,05,30,01,55,12.30
2007,05,30,01,56,12.30
2007,05,30,01,57,12.30
2007,05,30,01,58,12.40
2007,05,30,01,59,12.40
2007,05,30,02,00,12.40
2007,05,30,02,01,12.40
2007,05,30,02,02,12.50
2007,05,30,02,03,12.50
2007,05,30,02,04,12.50
2007,05,30,02,05,12.50
2007,05,30,02,06,12.60
2007,05,30,02,07,12.60
2007,05,30,02,08,12.60
2007,05,30,02,09,12.60
2007,05,30,02,10,12.60
2007,05,30,02,11,12.50
2007,05,30,02,12,12.50
2007,05,30,02,13,12.50
2007,05,30,02,14,12.50
2007,05,30,02,15,12.50
2007,05,30,02,16,12.50
2007,05,30,02,17,12.50
2007,05,30,02,18,12.40
2007,05,30,02,19,12.40
2007,05,30,02,20,12.40
2007,05,30,02,21,12.40
2007,05,30,02,22,12.40
2007,05,30,02,23,12.40
2007,05,30,02,24,12.40
2007,05,30,02,25,12.40
2007,05,30,02,26,12.30
2007,05,30,02,27,12.30
2007,05,30,02,28,12.30
2007,05,30,02,29,12.30
2007,05,30,02,30,12.30
2007,05,30,02,31,12.30
2007,05,30,02,32,12.30
2007,05,30,02,33,12.30
2007,05,30,02,34,12.30
2007,05,30,02,35,12.40
2007,05,30,02,36,12.40
2007,05,30,02,37,12.40
2007,05,30,02,38,12.50
2007,05,30,02,39,12.50
2007,05,30,02,40,12.60
2007,05,30,02,41,12.60
2007,05,30,02,42,12.60
2007,05,30,02,43,12.60
2007,05,30,02,44,12.60
2007,05,30,02,45,12.60
2007,05,30,02,46,12.60
2007,05,30,02,47,12.50
2007,05,30,02,48,12.50
2007,05,30,02,49,12.50
2007,05,30,02,50,12.40
2007,05,30,02,51,12.40
2007,05,30,02,52,12.40
2007,05,30,02,53,12.30
2007,05,30,02,54,12.30
2007,05,30,02,55,12.30
2007,05,30,02,56,12.20
2007,05,30,02,57,12.20
2007,05,30,02,58,12.20
2007,05,30,02,59,12.20
2007,05,30,03,00,12.20
2007,05,30,03,01,12.10
2007,05,30,03,02,12.10
2007,05,30,03,03,12.10
2007,05,30,03,04,12.10
2007,05,30,03,05,12.10
2007,05,30,03,06,12.10
2007,05,30,03,07,12.00
2007,05,30,03,08,12.00
2007,05,30,03,09,12.00
2007,05,30,03,10,12.00
2007,05,30,03,11,12.00
2007,05,30,03,12,12.10
2007,05,30,03,13,12.10
2007,05,30,03,14,12.10
2007,05,30,03,15,12.10
2007,05,30,03,16,12.00
2007,05,30,03,17,12.00
2007,05,30,03,18,12.00
2007,05,30,03,19,12.00
2007,05,30,03,20,12.00
2007,05,30,03,21,12.00
2007,05,30,03,22,12.00
2007,05,30,03,23,12.00
2007,05,30,03,24,11.90
2007,05,30,03,25,11.90
2007,05,30,03,26,11.90
2007,05,30,03,27,11.90
2007,05,30,03,28,11.90
2007,05,30,03,29,11.80
2007,05,30,03,30,11.80
2007,05,30,03,31,11.80
2007,05,30,03,32,11.80
2007,05,30,03,33,11.70
2007,05,30,03,34,11.70
2007,05,30,03,35,11.70
2007,05,30,03,36,11.70
2007,05,30,03,37,11.60
2007,05,30,03,38,11.60
2007,05,30,03,39,11.60
2007,05,30,03,40,11.60
2007,05,30,03,41,11.60
2007,05,30,03,42,11.60
2007,05,30,03,43,11.50
2007,05,30,03,44,11.50
2007,05,30,03,45,11.50
2007,05,30,03,46,11.50
2007,05,30,03,47,11.40
2007,05,30,03,48,11.40
2007,05,30,03,49,11.40
2007,05,30,03,50,11.40
2007,05,30,03,51,11.40
2007,05,30,03,52,11.40
2007,05,30,03,53,11.40
2007,05,30,03,54,11.40
2007,05,30,03,55,11.40
2007,05,30,03,56,11.30
2007,05,30,03,57,11.30
2007,05,30,03,58,11.30
2007,05,30,03,59,11.30
2007,05,30,04,00,11.30
2007,05,30,04,01,11.30
2007,05,30,04,02,11.30
2007,05,30,04,03,11.20
2007,05,30,04,04,11.20
2007,05,30,04,05,11.20
2007,05,30,04,06,11.20
2007,05,30,04,07,11.20
2007,05,30,04,08,11.20
2007,05,30,04,09,11.20
2007,05,30,04,10,11.20
2007,05,30,04,11,11.20
2007,05,30,04,12,11.20
2007,05,30,04,13,11.20
2007,05,30,04,14,11.20
2007,05,30,04,15,11.20
2007,05,30,04,16,11.20
2007,05,30,04,17,11.20
2007,05,30,04,18,11.20
2007,05,30,04,19,11.20
2007,05,30,04,20,11.10
2007,05,30,04,21,11.10
2007,05,30,04,22,11.10
2007,05,30,04,23,11.10
2007,05,30,04,24,11.10
2007,05,30,04,25,11.10
2007,05,30,04,26,11.10
2007,05,30,04,27,11.10
2007,05,30,04,28,11.00
2007,05,30,04,29,11.00
2007,05,30,04,30,11.00
2007,05,30,04,31,11.00
2007,05,30,04,32,11.00
2007,05,30,04,33,11.00
2007,05,30,04,34,11.00
2007,05,30,04,35,11.00
2007,05,30,04,36,11.00
2007,05,30,04,37,10.90
2007,05,30,04,38,10.90
2007,05,30,04,39,10.90
2007,05,30,04,40,10.90
2007,05,30,04,41,10.90
2007,05,30,04,42,10.90
2007,05,30,04,43,10.80
2007,05,30,04,44,10.80
2007,05,30,04,45,10.80
2007,05,30,04,46,10.80
2007,05,30,04,47,10.80
2007,05,30,04,48,10.80
2007,05,30,04,49,10.80
2007,05,30,04,50,10.80
2007,05,30,04,51,10.70
2007,05,30,04,52,10.70
2007,05,30,04,53,10.70
2007,05,30,04,54,10.70
2007,05,30,04,55,10.70
2007,05,30,04,56,10.70
2007,05,30,04,57,10.60
2007,05,30,04,58,10.60
2007,05,30,04,59,10.60
2007,05,30,05,00,10.60
2007,05,30,05,01,10.60
2007,05,30,05,02,10.50
2007,05,30,05,03,10.50
2007,05,30,05,04,10.50
2007,05,30,05,05,10.50
2007,05,30,05,06,10.50
2007,05,30,05,07,10.40
2007,05,30,05,08,10.40
2007,05,30,05,09,10.40
2007,05,30,05,10,10.40
2007,05,30,05,11,10.40
2007,05,30,05,12,10.30
2007,05,30,05,13,10.30
2007,05,30,05,14,10.30
2007,05,30,05,15,10.30
2007,05,30,05,16,10.30
2007,05,30,05,17,10.30
2007,05,30,05,18,10.30
2007,05,30,05,19,10.30
2007,05,30,05,20,10.20
2007,05,30,05,21,10.20
2007,05,30,05,22,10.20
2007,05,30,05,23,10.20
2007,05,30,05,24,10.20
2007,05,30,05,25,10.20
2007,05,30,05,26,10.20
2007,05,30,05,27,10.20
2007,05,30,05,28,10.20
2007,05,30,05,29,10.20
2007,05,30,05,30,10.20
2007,05,30,05,31,10.10
2007,05,30,05,32,10.10
2007,05,30,05,33,10.10
2007,05,30,05,34,10.10
2007,05,30,05,35,10.10
2007,05,30,05,36,10.10
2007,05,30,05,37,10.10
2007,05,30,05,38,10.10
2007,05,30,05,39,10.10
2007,05,30,05,40,10.10
2007,05,30,05,41,10.10
2007,05,30,05,42,10.10
2007,05,30,05,43,10.10
2007,05,30,05,44,10.10
2007,05,30,05,45,10.20
2007,05,30,05,46,10.10
2007,05,30,05,47,10.20
2007,05,30,05,48,10.20
2007,05,30,05,49,10.20
2007,05,30,05,50,10.20
2007,05,30,05,51,10.20
2007,05,30,05,52,10.20
2007,05,30,05,53,10.20
2007,05,30,05,54,10.20
2007,05,30,05,55,10.20
2007,05,30,05,56,10.20
2007,05,30,05,57,10.20
2007,05,30,05,58,10.20
2007,05,30,05,59,10.20
2007,05,30,06,00,10.20
2007,05,30,06,01,10.20
2007,05,30,06,02,10.20
2007,05,30,06,03,10.20
2007,05,30,06,04,10.20
2007,05,30,06,05,10.20
2007,05,30,06,06,10.20
2007,05,30,06,07,10.20
2007,05,30,06,08,10.20
2007,05,30,06,09,10.20
2007,05,30,06,10,10.20
2007,05,30,06,11,10.20
2007,05,30,06,12,10.20
2007,05,30,06,13,10.20
2007,05,30,06,14,10.20
2007,05,30,06,15,10.30
2007,05,30,06,16,10.30
2007,05,30,06,17,10.30
2007,05,30,06,18,10.30
2007,05,30,06,19,10.30
2007,05,30,06,20,10.40
2007,05,30,06,21,10.40
2007,05,30,06,22,10.40
2007,05,30,06,23,10.50
2007,05,30,06,24,10.50
2007,05,30,06,25,10.60
2007,05,30,06,26,10.60
2007,05,30,06,27,10.60
2007,05,30,06,28,10.60
2007,05,30,06,29,10.70
2007,05,30,06,30,10.70
2007,05,30,06,31,10.70
2007,05,30,06,32,10.80
2007,05,30,06,33,10.80
2007,05,30,06,34,10.80
2007,05,30,06,35,10.80
2007,05,30,06,36,10.90
2007,05,30,06,37,10.90
2007,05,30,06,38,10.90
2007,05,30,06,39,10.90
2007,05,30,06,40,11.00
2007,05,30,06,41,11.00
2007,05,30,06,42,11.10
2007,05,30,06,43,11.10
2007,05,30,06,44,11.10
2007,05,30,06,45,11.20
2007,05,30,06,46,11.20
2007,05,30,06,47,11.30
2007,05,30,06,48,11.30
2007,05,30,06,49,11.30
2007,05,30,06,50,11.40
2007,05,30,06,51,11.40
2007,05,30,06,52,11.50
2007,05,30,06,53,11.60
2007,05,30,06,54,11.60
2007,05,30,06,55,11.60
2007,05,30,06,56,11.70
2007,05,30,06,57,11.70
2007,05,30,06,58,11.80
2007,05,30,06,59,11.80
2007,05,30,07,00,11.90
2007,05,30,07,01,11.90
2007,05,30,07,02,12.00
2007,05,30,07,03,12.10
2007,05,30,07,04,12.10
2007,05,30,07,05,12.20
2007,05,30,07,06,12.20
2007,05,30,07,07,12.20
2007,05,30,07,08,12.30
2007,05,30,07,09,12.30
2007,05,30,07,10,12.30
2007,05,30,07,11,12.40
2007,05,30,07,12,12.40
2007,05,30,07,13,12.40
2007,05,30,07,14,12.40
2007,05,30,07,15,12.50
2007,05,30,07,16,12.50
2007,05,30,07,17,12.60
2007,05,30,07,18,12.60
2007,05,30,07,19,12.60
2007,05,30,07,20,12.70
2007,05,30,07,21,12.70
2007,05,30,07,22,12.70
2007,05,30,07,23,12.80
2007,05,30,07,24,12.80
2007,05,30,07,25,12.90
2007,05,30,07,26,13.00
2007,05,30,07,27,13.10
2007,05,30,07,28,13.10
2007,05,30,07,29,13.20
2007,05,30,07,30,13.30
2007,05,30,07,31,13.30
2007,05,30,07,32,13.40
2007,05,30,07,33,13.40
2007,05,30,07,34,13.50
2007,05,30,07,35,13.60
2007,05,30,07,36,13.70
2007,05,30,07,37,13.70
2007,05,30,07,38,13.80
2007,05,30,07,39,13.90
2007,05,30,07,40,14.00
2007,05,30,07,41,14.10
2007,05,30,07,42,14.20
2007,05,30,07,43,14.30
2007,05,30,07,44,14.40
2007,05,30,07,45,14.60
2007,05,30,07,46,14.70
2007,05,30,07,47,14.90
2007,05,30,07,48,15.00
2007,05,30,07,49,15.00
2007,05,30,07,50,15.20
2007,05,30,07,51,15.40
2007,05,30,07,52,15.60
2007,05,30,07,53,15.80
2007,05,30,07,54,15.90
2007,05,30,07,55,16.00
2007,05,30,07,56,16.10
2007,05,30,07,57,16.20
2007,05,30,07,58,16.30
2007,05,30,07,59,16.40
2007,05,30,08,00,16.50
2007,05,30,08,01,16.60
2007,05,30,08,02,16.70
2007,05,30,08,03,16.70
2007,05,30,08,04,16.80
2007,05,30,08,05,16.90
2007,05,30,08,06,16.90
2007,05,30,08,07,17.00
2007,05,30,08,08,17.10
2007,05,30,08,09,17.10
2007,05,30,08,10,17.20
2007,05,30,08,11,17.30
2007,05,30,08,12,17.30
2007,05,30,08,13,17.30
2007,05,30,08,14,17.40
2007,05,30,08,15,17.40
2007,05,30,08,16,17.40
2007,05,30,08,17,17.40
2007,05,30,08,18,17.40
2007,05,30,08,19,17.40
2007,05,30,08,20,17.40
2007,05,30,08,21,17.50
2007,05,30,08,22,17.50
2007,05,30,08,23,17.60
2007,05,30,08,24,17.60
2007,05,30,08,25,17.60
2007,05,30,08,26,17.70
2007,05,30,08,27,17.70
2007,05,30,08,28,17.70
2007,05,30,08,29,17.70
2007,05,30,08,30,17.80
2007,05,30,08,31,17.80
2007,05,30,08,32,17.80
2007,05,30,08,33,17.90
2007,05,30,08,34,17.90
2007,05,30,08,35,17.90
2007,05,30,08,36,17.90
2007,05,30,08,37,17.90
2007,05,30,08,38,18.00
2007,05,30,08,39,18.10
2007,05,30,08,40,18.10
2007,05,30,08,41,18.20
2007,05,30,08,42,18.30
2007,05,30,08,43,18.30
2007,05,30,08,44,18.40
2007,05,30,08,45,18.40
2007,05,30,08,46,18.40
2007,05,30,08,47,18.40
2007,05,30,08,48,18.40
2007,05,30,08,49,18.30
2007,05,30,08,50,18.30
2007,05,30,08,51,18.20
2007,05,30,08,52,18.20
2007,05,30,08,53,18.20
2007,05,30,08,54,18.20
2007,05,30,08,55,18.20
2007,05,30,08,56,18.20
2007,05,30,08,57,18.20
2007,05,30,08,58,18.20
2007,05,30,08,59,18.10
2007,05,30,09,00,18.00
2007,05,30,09,01,18.00
2007,05,30,09,02,18.00
2007,05,30,09,03,18.10
2007,05,30,09,04,18.20
2007,05,30,09,05,18.30
2007,05,30,09,06,18.30
2007,05,30,09,07,18.40
2007,05,30,09,08,18.40
2007,05,30,09,09,18.50
2007,05,30,09,10,18.60
2007,05,30,09,11,18.60
2007,05,30,09,12,18.70
2007,05,30,09,13,18.70
2007,05,30,09,14,18.70
2007,05,30,09,15,18.70
2007,05,30,09,16,18.70
2007,05,30,09,17,18.80
2007,05,30,09,18,18.80
2007,05,30,09,19,18.80
2007,05,30,09,20,18.80
2007,05,30,09,21,18.70
2007,05,30,09,22,18.70
2007,05,30,09,23,18.80
2007,05,30,09,24,18.80
2007,05,30,09,25,18.80
2007,05,30,09,26,18.90
2007,05,30,09,27,18.90
2007,05,30,09,28,18.90
2007,05,30,09,29,18.90
2007,05,30,09,30,19.00
2007,05,30,09,31,19.00
2007,05,30,09,32,19.00
2007,05,30,09,33,19.10
2007,05,30,09,34,19.10
2007,05,30,09,35,19.10
2007,05,30,09,36,19.10
2007,05,30,09,37,19.10
2007,05,30,09,38,19.00
2007,05,30,09,39,19.00
2007,05,30,09,40,18.90
2007,05,30,09,41,18.90
2007,05,30,09,42,18.90
2007,05,30,09,43,18.90
2007,05,30,09,44,18.90
2007,05,30,09,45,19.00
2007,05,30,09,46,19.10
2007,05,30,09,47,19.10
2007,05,30,09,48,19.10
2007,05,30,09,49,19.10
2007,05,30,09,50,19.10
2007,05,30,09,51,19.20
2007,05,30,09,52,19.20
2007,05,30,09,53,19.30
2007,05,30,09,54,19.30
2007,05,30,09,55,19.30
2007,05,30,09,56,19.30
2007,05,30,09,57,19.20
2007,05,30,09,58,19.20
2007,05,30,09,59,19.20
2007,05,30,10,00,19.30
2007,05,30,10,01,19.30
2007,05,30,10,02,19.40
2007,05,30,10,03,19.40
2007,05,30,10,04,19.50
2007,05,30,10,05,19.50
2007,05,30,10,06,19.40
2007,05,30,10,07,19.40
2007,05,30,10,08,19.40
2007,05,30,10,09,19.40
2007,05,30,10,10,19.40
2007,05,30,10,11,19.40
2007,05,30,10,12,19.40
2007,05,30,10,13,19.40
2007,05,30,10,14,19.30
2007,05,30,10,15,19.30
2007,05,30,10,16,19.20
2007,05,30,10,17,19.20
2007,05,30,10,18,19.20
2007,05,30,10,19,19.20
2007,05,30,10,20,19.20
2007,05,30,10,21,19.20
2007,05,30,10,22,19.20
2007,05,30,10,23,19.20
2007,05,30,10,24,19.20
2007,05,30,10,25,19.20
2007,05,30,10,26,19.20
2007,05,30,10,27,19.20
2007,05,30,10,28,19.20
2007,05,30,10,29,19.20
2007,05,30,10,30,19.20
2007,05,30,10,31,19.20
2007,05,30,10,32,19.20
2007,05,30,10,33,19.20
2007,05,30,10,34,19.20
2007,05,30,10,35,19.30
2007,05,30,10,36,19.30
2007,05,30,10,37,19.40
2007,05,30,10,38,19.40
2007,05,30,10,39,19.40
2007,05,30,10,40,19.50
2007,05,30,10,41,19.50
2007,05,30,10,42,19.60
2007,05,30,10,43,19.70
2007,05,30,10,44,19.80
2007,05,30,10,45,19.80
2007,05,30,10,46,19.80
2007,05,30,10,47,19.80
2007,05,30,10,48,19.70
2007,05,30,10,49,19.60
2007,05,30,10,50,19.50
2007,05,30,10,51,19.40
2007,05,30,10,52,19.20
2007,05,30,10,53,19.10
2007,05,30,10,54,19.00
2007,05,30,10,55,19.10
2007,05,30,10,56,19.10
2007,05,30,10,57,19.20
2007,05,30,10,58,19.20
2007,05,30,10,59,19.10
2007,05,30,11,00,19.10
2007,05,30,11,01,19.10
2007,05,30,11,02,19.20
2007,05,30,11,03,19.30
2007,05,30,11,04,19.40
2007,05,30,11,05,19.50
2007,05,30,11,06,19.70
2007,05,30,11,07,19.70
2007,05,30,11,08,19.70
2007,05,30,11,09,19.70
2007,05,30,11,10,19.80
2007,05,30,11,11,19.80
2007,05,30,11,12,19.70
2007,05,30,11,13,19.70
2007,05,30,11,14,19.70
2007,05,30,11,15,19.70
2007,05,30,11,16,19.70
2007,05,30,11,17,19.80
2007,05,30,11,18,19.80
2007,05,30,11,19,19.90
2007,05,30,11,20,19.90
2007,05,30,11,21,20.00
2007,05,30,11,22,20.10
2007,05,30,11,23,20.10
2007,05,30,11,24,20.10
2007,05,30,11,25,20.10
2007,05,30,11,26,20.10
2007,05,30,11,27,20.20
2007,05,30,11,28,20.20
2007,05,30,11,29,20.20
2007,05,30,11,30,20.20
2007,05,30,11,31,20.20
2007,05,30,11,32,20.10
2007,05,30,11,33,20.10
2007,05,30,11,34,20.00
2007,05,30,11,35,19.80
2007,05,30,11,36,19.70
2007,05,30,11,37,19.70
2007,05,30,11,38,19.70
2007,05,30,11,39,19.80
2007,05,30,11,40,19.80
2007,05,30,11,41,19.80
2007,05,30,11,42,19.80
2007,05,30,11,43,19.80
2007,05,30,11,44,19.80
2007,05,30,11,45,19.90
2007,05,30,11,46,19.90
2007,05,30,11,47,20.00
2007,05,30,11,48,20.00
2007,05,30,11,49,20.00
2007,05,30,11,50,20.00
2007,05,30,11,51,20.00
2007,05,30,11,52,20.00
2007,05,30,11,53,20.00
2007,05,30,11,54,20.00
2007,05,30,11,55,20.00
2007,05,30,11,56,19.90
2007,05,30,11,57,20.00
2007,05,30,11,58,20.00
2007,05,30,11,59,20.10
2007,05,30,12,00,20.10
2007,05,30,12,01,20.10
2007,05,30,12,02,20.20
2007,05,30,12,03,20.20
2007,05,30,12,04,20.20
2007,05,30,12,05,20.20
2007,05,30,12,06,20.20
2007,05,30,12,07,20.20
2007,05,30,12,08,20.20
2007,05,30,12,09,20.20
2007,05,30,12,10,20.20
2007,05,30,12,11,20.20
2007,05,30,12,12,20.30
2007,05,30,12,13,20.30
2007,05,30,12,14,20.20
2007,05,30,12,15,20.20
2007,05,30,12,16,20.20
2007,05,30,12,17,20.30
2007,05,30,12,18,20.30
2007,05,30,12,19,20.30
2007,05,30,12,20,20.30
2007,05,30,12,21,20.30
2007,05,30,12,22,20.20
2007,05,30,12,23,20.20
2007,05,30,12,24,20.30
2007,05,30,12,25,20.40
2007,05,30,12,26,20.40
2007,05,30,12,27,20.50
2007,05,30,12,28,20.60
2007,05,30,12,29,20.60
2007,05,30,12,30,20.60
2007,05,30,12,31,20.70
2007,05,30,12,32,20.70
2007,05,30,12,33,20.70
2007,05,30,12,34,20.80
2007,05,30,12,35,20.80
2007,05,30,12,36,20.80
2007,05,30,12,37,20.90
2007,05,30,12,38,20.90
2007,05,30,12,39,21.00
2007,05,30,12,40,21.00
2007,05,30,12,41,21.10
2007,05,30,12,42,21.10
2007,05,30,12,43,21.00
2007,05,30,12,44,21.00
2007,05,30,12,45,21.00
2007,05,30,12,46,20.90
2007,05,30,12,47,20.90
2007,05,30,12,48,20.90
2007,05,30,12,49,20.90
2007,05,30,12,50,20.90
2007,05,30,12,51,20.80
2007,05,30,12,52,20.90
2007,05,30,12,53,20.90
2007,05,30,12,54,20.90
2007,05,30,12,55,21.00
2007,05,30,12,56,21.00
2007,05,30,12,57,21.10
2007,05,30,12,58,21.10
2007,05,30,12,59,21.10
2007,05,30,13,00,21.20
2007,05,30,13,01,21.20
2007,05,30,13,02,21.30
2007,05,30,13,03,21.40
2007,05,30,13,04,21.50
2007,05,30,13,05,21.50
2007,05,30,13,06,21.60
2007,05,30,13,07,21.60
2007,05,30,13,08,21.60
2007,05,30,13,09,21.60
2007,05,30,13,10,21.70
2007,05,30,13,11,21.70
2007,05,30,13,12,21.70
2007,05,30,13,13,21.70
2007,05,30,13,14,21.70
2007,05,30,13,15,21.80
2007,05,30,13,16,21.90
2007,05,30,13,17,21.90
2007,05,30,13,18,21.90
2007,05,30,13,19,22.00
2007,05,30,13,20,21.90
2007,05,30,13,21,21.80
2007,05,30,13,22,21.80
2007,05,30,13,23,21.90
2007,05,30,13,24,22.00
2007,05,30,13,25,22.00
2007,05,30,13,26,22.10
2007,05,30,13,27,22.20
2007,05,30,13,28,22.20
2007,05,30,13,29,22.20
2007,05,30,13,30,22.10
2007,05,30,13,31,22.10
2007,05,30,13,32,22.00
2007,05,30,13,33,22.00
2007,05,30,13,34,22.00
2007,05,30,13,35,22.00
2007,05,30,13,36,21.90
2007,05,30,13,37,21.90
2007,05,30,13,38,21.80
2007,05,30,13,39,21.80
2007,05,30,13,40,21.80
2007,05,30,13,41,21.80
2007,05,30,13,42,21.90
2007,05,30,13,43,22.00
2007,05,30,13,44,22.00
2007,05,30,13,45,22.00
2007,05,30,13,46,22.00
2007,05,30,13,47,22.10
2007,05,30,13,48,22.10
2007,05,30,13,49,22.20
2007,05,30,13,50,22.20
2007,05,30,13,51,22.30
2007,05,30,13,52,22.30
2007,05,30,13,53,22.30
2007,05,30,13,54,22.40
2007,05,30,13,55,22.40
2007,05,30,13,56,22.50
2007,05,30,13,57,22.60
2007,05,30,13,58,22.60
2007,05,30,13,59,22.70
2007,05,30,14,00,22.70
2007,05,30,14,01,22.70
2007,05,30,14,02,22.70
2007,05,30,14,03,22.60
2007,05,30,14,04,22.60
2007,05,30,14,05,22.60
2007,05,30,14,06,22.60
2007,05,30,14,07,22.60
2007,05,30,14,08,22.60
2007,05,30,14,09,22.70
2007,05,30,14,10,22.70
2007,05,30,14,11,22.80
2007,05,30,14,12,22.80
2007,05,30,14,13,22.80
2007,05,30,14,14,22.70
2007,05,30,14,15,22.70
2007,05,30,14,16,22.60
2007,05,30,14,17,22.60
2007,05,30,14,18,22.70
2007,05,30,14,19,22.70
2007,05,30,14,20,22.80
2007,05,30,14,21,22.80
2007,05,30,14,22,22.80
2007,05,30,14,23,22.70
2007,05,30,14,24,22.70
2007,05,30,14,25,22.70
2007,05,30,14,26,22.70
2007,05,30,14,27,22.80
2007,05,30,14,28,22.70
2007,05,30,14,29,22.70
2007,05,30,14,30,22.70
2007,05,30,14,31,22.70
2007,05,30,14,32,22.70
2007,05,30,14,33,22.70
2007,05,30,14,34,22.70
2007,05,30,14,35,22.70
2007,05,30,14,36,22.70
2007,05,30,14,37,22.70
2007,05,30,14,38,22.70
2007,05,30,14,39,22.70
2007,05,30,14,40,22.60
2007,05,30,14,41,22.60
2007,05,30,14,42,22.50
2007,05,30,14,43,22.50
2007,05,30,14,44,22.50
2007,05,30,14,45,22.50
2007,05,30,14,46,22.50
2007,05,30,14,47,22.60
2007,05,30,14,48,22.60
2007,05,30,14,49,22.70
2007,05,30,14,50,22.60
2007,05,30,14,51,22.50
2007,05,30,14,52,22.40
2007,05,30,14,53,22.30
2007,05,30,14,54,22.30
2007,05,30,14,55,22.30
2007,05,30,14,56,22.30
2007,05,30,14,57,22.40
2007,05,30,14,58,22.40
2007,05,30,14,59,22.60
2007,05,30,15,00,22.70
2007,05,30,15,01,22.70
2007,05,30,15,02,22.80
2007,05,30,15,03,22.80
2007,05,30,15,04,22.80
2007,05,30,15,05,22.80
2007,05,30,15,06,22.70
2007,05,30,15,07,22.70
2007,05,30,15,08,22.80
2007,05,30,15,09,22.80
2007,05,30,15,10,22.90
2007,05,30,15,11,22.90
2007,05,30,15,12,22.80
2007,05,30,15,13,22.90
2007,05,30,15,14,22.90
2007,05,30,15,15,22.70
2007,05,30,15,16,22.60
2007,05,30,15,17,22.50
2007,05,30,15,18,22.50
2007,05,30,15,19,22.50
2007,05,30,15,20,22.50
2007,05,30,15,21,22.40
2007,05,30,15,22,22.40
2007,05,30,15,23,22.30
2007,05,30,15,24,22.20
2007,05,30,15,25,22.20
2007,05,30,15,26,22.20
2007,05,30,15,27,22.20
2007,05,30,15,28,22.20
2007,05,30,15,29,22.30
2007,05,30,15,30,22.30
2007,05,30,15,31,22.30
2007,05,30,15,32,22.40
2007,05,30,15,33,22.40
2007,05,30,15,34,22.40
2007,05,30,15,35,22.40
2007,05,30,15,36,22.40
2007,05,30,15,37,22.30
2007,05,30,15,38,22.30
2007,05,30,15,39,22.30
2007,05,30,15,40,22.30
2007,05,30,15,41,22.50
2007,05,30,15,42,22.60
2007,05,30,15,43,22.60
2007,05,30,15,44,22.50
2007,05,30,15,45,22.50
2007,05,30,15,46,22.40
2007,05,30,15,47,22.40
2007,05,30,15,48,22.40
2007,05,30,15,49,22.40
2007,05,30,15,50,22.40
2007,05,30,15,51,22.50
2007,05,30,15,52,22.60
2007,05,30,15,53,22.60
2007,05,30,15,54,22.70
2007,05,30,15,55,22.80
2007,05,30,15,56,22.90
2007,05,30,15,57,22.90
2007,05,30,15,58,22.90
2007,05,30,15,59,22.90
2007,05,30,16,00,22.90
2007,05,30,16,01,22.80
2007,05,30,16,02,22.80
2007,05,30,16,03,22.80
2007,05,30,16,04,22.70
2007,05,30,16,05,22.70
2007,05,30,16,06,22.60
2007,05,30,16,07,22.60
2007,05,30,16,08,22.60
2007,05,30,16,09,22.60
2007,05,30,16,10,22.60
2007,05,30,16,11,22.60
2007,05,30,16,12,22.60
2007,05,30,16,13,22.60
2007,05,30,16,14,22.70
2007,05,30,16,15,22.70
2007,05,30,16,16,22.80
2007,05,30,16,17,22.80
2007,05,30,16,18,22.90
2007,05,30,16,19,22.90
2007,05,30,16,20,23.00
2007,05,30,16,21,23.10
2007,05,30,16,22,23.10
2007,05,30,16,23,23.10
2007,05,30,16,24,23.10
2007,05,30,16,25,23.10
2007,05,30,16,26,23.10
2007,05,30,16,27,23.20
2007,05,30,16,28,23.20
2007,05,30,16,29,23.20
2007,05,30,16,30,23.40
2007,05,30,16,31,23.50
2007,05,30,16,32,23.70
2007,05,30,16,33,23.80
2007,05,30,16,34,23.90
2007,05,30,16,35,24.00
2007,05,30,16,36,24.10
2007,05,30,16,37,24.10
2007,05,30,16,38,24.20
2007,05,30,16,39,24.20
2007,05,30,16,40,24.20
2007,05,30,16,41,24.30
2007,05,30,16,42,24.30
2007,05,30,16,43,24.40
2007,05,30,16,44,24.40
2007,05,30,16,45,24.40
2007,05,30,16,46,24.40
2007,05,30,16,47,24.30
2007,05,30,16,48,24.30
2007,05,30,16,49,24.20
2007,05,30,16,50,24.30
2007,05,30,16,51,24.30
2007,05,30,16,52,24.40
2007,05,30,16,53,24.40
2007,05,30,16,54,24.50
2007,05,30,16,55,24.50
2007,05,30,16,56,24.60
2007,05,30,16,57,24.70
2007,05,30,16,58,24.80
2007,05,30,16,59,24.90
2007,05,30,17,00,24.90
2007,05,30,17,01,24.90
2007,05,30,17,02,24.90
2007,05,30,17,03,24.90
2007,05,30,17,04,24.90
2007,05,30,17,05,25.00
2007,05,30,17,06,25.10
2007,05,30,17,07,25.20
2007,05,30,17,08,25.30
2007,05,30,17,09,25.30
2007,05,30,17,10,25.40
2007,05,30,17,11,25.40
2007,05,30,17,12,25.40
2007,05,30,17,13,25.50
2007,05,30,17,14,25.50
2007,05,30,17,15,25.50
2007,05,30,17,16,25.40
2007,05,30,17,17,25.30
2007,05,30,17,18,25.20
2007,05,30,17,19,25.10
2007,05,30,17,20,25.00
2007,05,30,17,21,24.90
2007,05,30,17,22,24.90
2007,05,30,17,23,24.90
2007,05,30,17,24,24.90
2007,05,30,17,25,24.90
2007,05,30,17,26,24.80
2007,05,30,17,27,24.80
2007,05,30,17,28,24.80
2007,05,30,17,29,24.80
2007,05,30,17,30,24.90
2007,05,30,17,31,24.80
2007,05,30,17,32,24.80
2007,05,30,17,33,24.80
2007,05,30,17,34,24.80
2007,05,30,17,35,24.80
2007,05,30,17,36,24.80
2007,05,30,17,37,24.90
2007,05,30,17,38,24.90
2007,05,30,17,39,25.00
2007,05,30,17,40,25.10
2007,05,30,17,41,25.00
2007,05,30,17,42,25.00
2007,05,30,17,43,25.00
2007,05,30,17,44,25.00
2007,05,30,17,45,24.90
2007,05,30,17,46,24.90
2007,05,30,17,47,25.00
2007,05,30,17,48,25.00
2007,05,30,17,49,25.10
2007,05,30,17,50,25.20
2007,05,30,17,51,25.30
2007,05,30,17,52,25.40
2007,05,30,17,53,25.40
2007,05,30,17,54,25.50
2007,05,30,17,55,25.50
2007,05,30,17,56,25.50
2007,05,30,17,57,25.60
2007,05,30,17,58,25.60
2007,05,30,17,59,25.60
2007,05,30,18,00,25.60
2007,05,30,18,01,25.70
2007,05,30,18,02,25.60
2007,05,30,18,03,25.60
2007,05,30,18,04,25.60
2007,05,30,18,05,25.60
2007,05,30,18,06,25.60
2007,05,30,18,07,25.50